Evergreen, AL

6:49 PM CDT on August 22, 2017 (GMT -0500)
Middleton

Weather History for KGZH - April, 2013

Change the Weather History Date:

Monday, April 1, 2013

  Actual Average (KPRN) Record (KPRN)
Temperature  
Mean Temperature 62 °F -  
Max Temperature 73 °F 76 °F 88 °F (1974)
Min Temperature 51 °F 47 °F 29 °F (1987)
Degree Days  
Heating Degree Days 3    
Growing Degree Days 12 (Base 50)    
Moisture  
Dew Point 55 °F    
Average Humidity 85    
Maximum Humidity 94    
Minimum Humidity 48    
Precipitation  
Precipitation 0.01 in - - ()
Sea Level Pressure  
Sea Level Pressure 30.02 in    
Wind  
Wind Speed 2 mph (WNW)    
Max Wind Speed 6 mph    
Max Gust Speed -    
Visibility 6 miles    
Events Fog    
Averages and records for this station are not official NWS values.
T = Trace of Precipitation, MM = Missing Value Source: NWS Daily Summary

Daily Weather History Graph

Daily Weather History Graph

Search for Another Location

Airport or City:

Trip Planner

Search our weather history database for the weather conditions in past years. The results will help you decide how hot, cold, wet, or windy it might be!

Date:

Astronomy

Apr. 01, 2013 Rise Set
Actual Time 6:36 AM CDT 7:07 PM CDT
Civil Twilight 6:12 AM CDT 7:32 PM CDT
Nautical Twilight 5:43 AM CDT 8:00 PM CDT
Astronomical Twilight 5:14 AM CDT 8:30 PM CDT
Moon No Moon Rise 10:39 AM CDT (4/1)
Length of Visible Light 13h 20m
Length of Day
12h 31m
Waning Gibbous, 67% of the Moon is Illuminated
Apr 1
Waning Gibbous
Apr 2
Last Quarter
Apr 10
New
Apr 18
First Quarter
Apr 25
Full

Hourly Weather History & Observations

Time (CDT) Temp. Dew Point Humidity Pressure Visibility Wind Dir Wind Speed Gust Speed Precip Events Conditions
12:14 AM 60.8 °F 59.0 °F 94% 29.93 in 1.2 mi Calm Calm - N/A   Mostly Cloudy
12:38 AM 62.6 °F 59.0 °F 88% 29.93 in 3.0 mi WNW 3.5 mph - N/A   Overcast
12:53 AM 62.1 °F 60.1 °F 93% 29.93 in 8.0 mi Variable 3.5 mph - N/A   Mostly Cloudy
1:09 AM 62.6 °F 59.0 °F 88% 29.94 in 10.0 mi WSW 4.6 mph - N/A   Scattered Clouds
1:53 AM 61.0 °F 59.0 °F 93% 29.93 in 10.0 mi WSW 3.5 mph - N/A   Clear
2:20 AM 60.8 °F 57.2 °F 88% 29.94 in 10.0 mi Calm Calm - N/A   Scattered Clouds
2:30 AM 60.8 °F 57.2 °F 88% 29.94 in 10.0 mi Calm Calm - 0.01 in   Mostly Cloudy
2:53 AM 61.0 °F 59.0 °F 93% 29.93 in 10.0 mi Calm Calm - 0.01 in   Overcast
3:32 AM 59.0 °F 57.2 °F 94% 29.94 in 1.8 mi Calm Calm - N/A   Mostly Cloudy
3:41 AM 59.0 °F 55.4 °F 88% 29.93 in 0.2 mi Calm Calm - N/A Fog Fog
3:53 AM 57.9 °F 55.9 °F 93% 29.93 in 0.5 mi Calm Calm - N/A Fog Fog
4:53 AM 55.0 °F 53.1 °F 93% 29.95 in 0.2 mi South 3.5 mph - N/A Fog Fog
5:19 AM 55.4 °F 53.6 °F 94% 29.96 in 0.8 mi Calm Calm - N/A   Overcast
5:25 AM 55.4 °F 53.6 °F 94% 29.96 in 1.0 mi Calm Calm - N/A   Overcast
5:31 AM 55.4 °F 53.6 °F 94% 29.97 in 3.0 mi Calm Calm - N/A   Overcast
5:53 AM 57.9 °F 55.0 °F 90% 29.97 in 8.0 mi Variable 3.5 mph - N/A   Overcast
6:05 AM 57.2 °F 55.4 °F 94% 29.99 in 6.0 mi NW 3.5 mph - N/A   Overcast
6:53 AM 59.0 °F 55.9 °F 90% 30.01 in 7.0 mi Calm Calm - N/A   Overcast
7:24 AM 59.0 °F 57.2 °F 94% 30.03 in 5.0 mi Calm Calm - N/A   Overcast
7:49 AM 60.8 °F 57.2 °F 88% 30.03 in 4.0 mi Calm Calm - N/A   Overcast
7:53 AM 60.1 °F 57.0 °F 90% 30.03 in 5.0 mi NNW 3.5 mph - N/A   Overcast
8:46 AM 60.8 °F 57.2 °F 88% 30.05 in 7.0 mi Calm Calm - N/A   Overcast
8:53 AM 61.0 °F 57.9 °F 90% 30.05 in 7.0 mi Calm Calm - N/A   Overcast
9:44 AM 60.8 °F 57.2 °F 88% 30.06 in 10.0 mi WNW 3.5 mph - N/A   Overcast
9:53 AM 61.0 °F 57.0 °F 87% 30.06 in 10.0 mi WNW 3.5 mph - N/A   Overcast
10:44 AM 62.6 °F 57.2 °F 82% 30.08 in 7.0 mi Variable 3.5 mph - N/A   Overcast
10:51 AM 62.6 °F 57.2 °F 82% 30.08 in 8.0 mi NW 5.8 mph - N/A   Overcast
10:53 AM 62.1 °F 57.0 °F 84% 30.07 in 8.0 mi NW 3.5 mph - N/A   Overcast
11:29 AM 62.6 °F 57.2 °F 82% 30.08 in 8.0 mi Variable 4.6 mph - N/A   Overcast
11:45 AM 62.6 °F 57.2 °F 82% 30.07 in 9.0 mi Variable 3.5 mph - N/A   Overcast
11:53 AM 63.0 °F 57.0 °F 81% 30.07 in 9.0 mi Variable 3.5 mph - N/A   Overcast
12:53 PM 64.0 °F 57.0 °F 78% 30.08 in 10.0 mi Variable 4.6 mph - N/A   Overcast
1:43 PM 66.2 °F 57.2 °F 73% 30.07 in 10.0 mi WNW 4.6 mph - N/A   Overcast
1:53 PM 66.0 °F 57.0 °F 73% 30.06 in 10.0 mi Variable 5.8 mph - N/A   Overcast
2:53 PM 66.9 °F 57.0 °F 70% 30.05 in 10.0 mi NNW 5.8 mph - N/A   Overcast
3:40 PM 69.8 °F 55.4 °F 60% 30.04 in 10.0 mi Variable 3.5 mph - N/A   Scattered Clouds
3:53 PM 70.0 °F 57.0 °F 63% 30.03 in 10.0 mi North 4.6 mph - N/A   Partly Cloudy
4:53 PM 72.0 °F 54.0 °F 53% 30.02 in 10.0 mi Calm Calm - N/A   Partly Cloudy
5:53 PM 73.0 °F 52.0 °F 48% 30.01 in 10.0 mi Calm Calm - N/A   Clear
6:53 PM 66.9 °F 57.0 °F 70% 30.02 in 10.0 mi Calm Calm - N/A   Clear
7:53 PM 60.1 °F 55.9 °F 86% 30.02 in 10.0 mi Calm Calm - N/A   Clear
8:53 PM 57.0 °F 54.0 °F 89% 30.04 in 6.0 mi Calm Calm - N/A   Clear
9:53 PM 55.0 °F 52.0 °F 89% 30.06 in 6.0 mi Calm Calm - N/A   Clear
10:49 PM 53.6 °F 50.0 °F 88% 30.07 in 1.8 mi Calm Calm - N/A   Clear
10:53 PM 52.0 °F 50.0 °F 93% 30.07 in 1.5 mi Calm Calm - N/A   Clear
10:59 PM 51.8 °F 48.2 °F 88% 30.07 in 3.0 mi Calm Calm - N/A   Clear
11:14 PM 51.8 °F 48.2 °F 88% 30.07 in 1.5 mi Calm Calm - N/A   Clear
11:32 PM 51.8 °F 48.2 °F 88% 30.07 in 2.0 mi Calm Calm - N/A   Clear
11:43 PM 51.8 °F 48.2 °F 88% 30.07 in 5.0 mi Calm Calm - N/A   Clear
11:53 PM 51.1 °F 48.9 °F 92% 30.07 in 5.0 mi Calm Calm - N/A   Clear